Terug naar catalogus

BREEZE-M R/B

ActiefHEO
NORAD 64468·ROCKET BODY·🇷🇺 Russia

Gelanceerd Jun 19, 2025 vanaf Plesetsk Cosmodrome

Loading…

Volgende Passages (komende 24 uur)

TLE

VerouderdSource: Space-Track

Epoch: Jun 17, 2026, 01:22 UTC

1 64468U 25131B   26168.05694913 -.00000180  00000-0  00000-0 0  9990
2 64468   0.1988  23.8522 3855369  81.3566 299.8771  1.04431882  3788

Volg BREEZE-M R/B in realtime met AllMySat

Download on the App Store